Powrót do katalogu

STARLINK-3611

AktywnyŁącznośćVLEO
NORAD 51779·PAYLOAD·🇺🇸 United States

Wystrzelony Feb 25, 2022 z Vandenberg Space Force Base

Loading…

Następne Przeloty (najbliższe 24 godziny)

TLE

ŚwieżeSource: CelesTrak SupGP

Epoka: Sep 15, 2026, 01:40 UTC

1 51779C 22017M   26258.06993056 -.00041063  00000+0 -11750-2 0  2581
2 51779  53.1586 197.1636 0001328  88.0618  77.4117 15.35415187    15

Śledź STARLINK-3611 w czasie rzeczywistym z AllMySat

Download on the App Store